Date String (YYYY-MM-DD hh:mm:ss) UTC,Instrument flags,Ambient pressure (hPa),Sample flow (lpm),Bypass flow (lpm),Sample temperature (°C),Ambient temperature (°C),ASC tube jacket temperature (°C),LED temperature (°C),Box temperature (°C),Sample RH (%),Mass concentration (μg/m³),Mass concentration (μg/m³)
DateTimeUTC,F1_M11,P_M11,Q1_M11,Q2_M11,T1_M11,T2_M11,T3_M11,T4_M11,T5_M11,U1_M11,X0_M11,X2_M11
2021-08-19 15:00:00,,0826.0,4.99,0.00,30.0,29.1,00.0,39.0,31.9,33.4,0022.52,0011.02
2021-08-19 15:01:00,,0826.0,5.01,0.00,30.0,29.1,00.0,39.0,31.9,33.4,0021.67,0011.05
2021-08-19 15:02:00,,0826.0,5.00,0.00,30.1,29.2,00.0,39.0,31.9,33.5,0021.64,0011.12
2021-08-19 15:03:00,,0825.9,5.00,0.00,30.1,29.3,00.0,39.0,32.0,33.7,0022.43,0011.22
2021-08-19 15:04:00,,0825.9,5.01,0.00,30.1,29.3,00.0,39.1,32.0,33.2,0023.45,0011.26
2021-08-19 15:05:00,,0825.9,4.99,0.00,30.2,29.1,00.0,39.1,31.9,33.2,0024.11,0011.27
2021-08-19 15:06:00,,0825.9,5.01,0.00,30.1,27.4,00.0,39.1,31.4,33.4,0024.78,0011.36
2021-08-19 15:07:00,,0825.9,4.99,0.00,29.9,26.1,00.0,39.0,31.1,33.7,0024.74,0011.43
2021-08-19 15:08:00,,0825.9,5.02,0.00,29.8,26.0,00.0,39.0,31.1,34.1,0023.51,0011.52
2021-08-19 15:09:00,,0825.8,5.01,0.00,29.7,26.5,00.0,39.0,31.1,34.4,0023.27,0011.58
2021-08-19 15:10:00,,0825.8,4.99,0.00,29.6,26.9,00.0,38.9,31.2,34.6,0023.95,0011.51
2021-08-19 15:11:00,,0825.8,5.00,0.00,29.6,27.3,00.0,38.9,31.3,34.1,0024.16,0011.47
2021-08-19 15:12:00,,0825.8,4.99,0.00,29.7,27.7,00.0,38.9,31.4,34.0,0024.41,0011.48
2021-08-19 15:13:00,,0825.8,5.00,0.00,29.7,28.0,00.0,38.9,31.4,34.2,0024.15,0011.46
2021-08-19 15:14:00,,0826.0,5.01,0.00,29.7,28.2,00.0,38.9,31.5,34.3,0023.40,0011.53
2021-08-19 15:15:00,,0825.9,4.99,0.00,29.7,28.4,00.0,38.9,31.5,34.3,0022.56,0011.60
2021-08-19 15:16:00,,0825.9,5.00,0.00,29.8,28.5,00.0,38.9,31.6,34.1,0022.58,0011.66
2021-08-19 15:17:00,,0826.2,5.00,0.00,29.8,28.7,00.0,38.9,31.7,34.5,0022.54,0011.66
2021-08-19 15:18:00,,0826.3,5.00,0.00,29.9,28.8,00.0,38.9,31.7,34.4,0024.63,0011.69
2021-08-19 15:19:00,,0825.9,5.01,0.00,29.9,28.9,00.0,38.9,31.8,34.2,0025.04,0011.72
2021-08-19 15:20:00,,0826.3,5.00,0.00,29.9,29.0,00.0,38.9,31.8,34.2,0025.11,0011.75
2021-08-19 15:21:00,,0826.0,5.00,0.00,30.0,29.1,00.0,39.0,31.9,34.2,0024.65,0011.88
2021-08-19 15:22:00,,0825.8,5.01,0.00,30.0,29.2,00.0,39.0,31.9,33.9,0024.75,0011.98
2021-08-19 15:23:00,,0825.7,4.99,0.00,30.0,29.2,00.0,39.0,32.0,34.1,0024.57,0012.06
2021-08-19 15:24:00,,0825.7,5.00,0.00,30.1,29.3,00.0,39.0,32.0,34.1,0025.07,0012.20
2021-08-19 15:25:00,,0825.7,5.01,0.00,30.1,29.3,00.0,39.1,32.0,33.9,0024.47,0012.19
2021-08-19 15:26:00,,0825.7,5.00,0.00,30.1,28.1,00.0,39.1,31.7,33.5,0024.96,0012.26
2021-08-19 15:27:00,,0825.7,4.99,0.00,29.9,26.6,00.0,39.0,31.2,33.9,0024.98,0012.35
2021-08-19 15:28:00,,0825.7,4.99,0.00,29.8,26.3,00.0,39.0,31.2,34.4,0025.14,0012.45
2021-08-19 15:29:00,,0825.7,5.00,0.00,29.7,26.6,00.0,39.0,31.2,34.4,0023.35,0012.55
2021-08-19 15:30:00,,0825.7,5.01,0.00,29.7,27.1,00.0,38.9,31.3,34.5,0023.20,0012.52
2021-08-19 15:31:00,,0825.7,4.99,0.00,29.7,27.5,00.0,38.9,31.3,34.7,0023.57,0012.57
2021-08-19 15:32:00,,0825.7,5.01,0.00,29.8,27.8,00.0,38.9,31.5,35.2,0023.42,0012.57
2021-08-19 15:33:00,,0825.7,4.99,0.00,30.0,28.1,00.0,38.9,31.7,34.6,0023.67,0012.60
2021-08-19 15:34:00,,0825.7,5.00,0.00,30.2,28.3,00.0,38.9,31.8,34.2,0023.97,0012.62
2021-08-19 15:35:00,,0825.7,5.00,0.00,30.4,28.5,00.0,38.9,31.9,34.4,0024.09,0012.56
2021-08-19 15:36:00,,0825.7,5.00,0.00,30.5,28.7,00.0,39.0,31.9,34.3,0024.44,0012.60
2021-08-19 15:37:00,,0825.7,5.01,0.00,30.5,28.8,00.0,39.0,31.9,34.5,0024.19,0012.63
2021-08-19 15:38:00,,0825.7,4.99,0.00,30.6,28.9,00.0,39.1,32.0,34.3,0023.66,0012.60
2021-08-19 15:39:00,,0825.7,5.01,0.00,30.6,29.0,00.0,39.2,32.0,34.4,0024.21,0012.63
2021-08-19 15:40:00,,0826.0,4.99,0.00,30.6,29.1,00.0,39.2,32.0,34.1,0024.68,0012.60
2021-08-19 15:41:00,,0825.9,5.00,0.00,30.7,29.2,00.0,39.3,32.1,34.5,0024.58,0012.67
2021-08-19 15:42:00,,0826.1,5.00,0.00,30.7,29.3,00.0,39.3,32.1,34.5,0024.96,0012.71
2021-08-19 15:43:00,,0825.7,5.00,0.00,30.7,29.0,00.0,39.4,32.1,34.0,0024.80,0012.73
2021-08-19 15:44:00,,0825.8,5.00,0.00,30.6,27.5,00.0,39.4,31.6,34.2,0025.06,0012.74
2021-08-19 15:45:00,,0825.8,5.00,0.00,30.4,26.5,00.0,39.4,31.3,34.5,0025.25,0012.82
2021-08-19 15:46:00,,0825.8,5.00,0.00,30.3,26.6,00.0,39.3,31.3,34.7,0024.97,0012.87
2021-08-19 15:47:00,,0825.8,5.01,0.00,30.3,27.0,00.0,39.3,31.4,35.2,0024.57,0012.85
2021-08-19 15:48:00,,0825.9,5.00,0.00,30.4,27.4,00.0,39.3,31.6,34.9,0024.12,0012.78
2021-08-19 15:49:00,,0825.9,5.00,0.00,30.6,27.8,00.0,39.3,31.8,34.0,0024.35,0012.75
2021-08-19 15:50:00,,0825.9,4.99,0.00,30.7,28.1,00.0,39.3,31.9,33.7,0024.83,0012.72
2021-08-19 15:51:00,,0826.0,5.00,0.00,30.8,28.3,00.0,39.3,31.9,33.5,0024.27,0012.64
2021-08-19 15:52:00,,0825.9,5.02,0.00,30.9,28.6,00.0,39.3,32.0,33.3,0024.16,0012.59
2021-08-19 15:53:00,,0825.9,5.00,0.00,30.9,28.7,00.0,39.4,32.0,33.5,0023.78,0012.49
2021-08-19 15:54:00,,0825.8,5.00,0.00,30.9,28.9,00.0,39.4,32.0,33.5,0024.17,0012.38
2021-08-19 15:55:00,,0825.9,5.01,0.00,30.9,29.0,00.0,39.5,32.1,33.0,0023.42,0012.24
